Location: Daytona Beach
(29.2106°N, 81.0231°W)
Time: 22:00:08
(UTC-04:00)

ISS - Pass Details

Date: 24 June 2021
Orbit: 419 x 421 km, 51.6° (Epoch: 03 August)

Event Time Altitude Azimuth Distance (km) Brightness Sun altitude
Exits shadow 05:08:00 28° 195° (SSW) 822 -2.7 -15.2°
Maximum altitude 05:09:30 53° 131° (SE) 519 -3.3 -14.9°
Drops below altitude 10° 05:12:47 10° 53° (NE) 1,495 0.5 -14.3°
Sets 05:14:54 0° 49° (NE) 2,361 2.0 -14.0°
